Regional Weather Roundup
Issued by NWS

Home | Current Version | Previous Version | Graphics & Text | Print | Product List | Glossary On
Versions: 1 2 3 4 5 6 7 8 9 10 11 12 13 14 15 16 17 18 19 20 21 22 23 24 25 26 27 28 29 30 31 32 33 34 35 36 37 38 39 40 41 42 43 44 45 46 47 48 49 50
000
ASUS45 KCYS 080410
RWRWY

WYOMING REGIONAL WEATHER ROUNDUP
NATIONAL WEATHER SERVICE CHEYENNE WY
1000 PM MDT TUE JUL 07 2015

NOTE:  "FAIR" INDICATES FEW OR NO CLOUDS BELOW 12,000 FEET
WITH NO SIGNIFICANT WEATHER AND/OR OBSTRUCTIONS TO VISIBILITY.

WYZ001-080500-
YELLOWSTONE NATIONAL PARK

CITY           SKY/WX    TMP DP  RH WIND       PRES   REMARKS
LK YELLOWSTONE   N/A     53  42  66 CALM      30.27R
W YELLOWSTONE  NOT AVBL

$$
WYZ002>013-054>058-071-098>099-080500-
NORTHERN WYOMING

CITY           SKY/WX    TMP DP  RH WIND       PRES   REMARKS
JACKSON        CLOUDY    55  54  94 N5        30.15R
CODY           CLOUDY    66  46  48 CALM      30.11R
GREYBULL       FAIR      66  54  65 SE13G18   30.05R
WORLAND        MOCLDY    60  55  83 S13       30.06S
SHERIDAN       FAIR      60  55  83 SW5       30.05R
BUFFALO        FAIR      61  52  72 E5        30.11R
GILLETTE       MOCLDY    58  54  86 CALM      30.08R
HULETT         FAIR      59  55  88 SW3       30.08R
NEWCASTLE      FAIR      63  46  55 MISG      30.09R

$$
WYZ014>020-022>026-101>103-080500-
CENTRAL WYOMING

CITY           SKY/WX    TMP DP  RH WIND       PRES   REMARKS
BIG PINEY      FAIR      53  49  86 SE8       30.19R
PINEDALE       FAIR      54  50  87 W3        30.21R
DUBOIS         LGT RAIN  54  48  82 SE7       30.23R
LANDER         CLOUDY    61  51  70 CALM      30.14R
RIVERTON       CLOUDY    59  55  87 CALM      30.14R
CASPER         CLOUDY    60  53  77 N5        30.12R
DOUGLAS        CLOUDY    59  54  83 E13       30.11R

$$
WYZ021-027>030-104>119-080500-
SOUTHERN WYOMING

CITY           SKY/WX    TMP DP  RH WIND       PRES   REMARKS
EVANSTON       FAIR      53  48  83 S6        30.18R
KEMMERER       CLOUDY   N/A N/A N/A E7        30.19F
FORT BRIDGER   CLEAR     57  55  94 SE5       30.20R
ROCK SPRINGS   MOCLDY    55  51  86 N6        30.16R
DIXON          FAIR      58  52  80 E7        30.16R
RAWLINS        CLOUDY    56  53  90 NE6       30.17R
SARATOGA       CLOUDY    54  54 100 CALM      30.18R
LARAMIE        FAIR      54  52  93 S5        30.17S
CHEYENNE       FAIR      56  54  93 S5        30.15R FOG
TORRINGTON     MOCLDY    63  52  67 E12       30.07R
PINE BLUFFS    CLOUDY    61  48  63 S3        30.12S

$$


USA.gov is the U.S. government's official web portal to all federal, state and local government web resources and services.